Regional Weather Roundup
Issued by NWS Cleveland, OH

Home | Current Version | Previous Version | Text Only | Print | Product List | Glossary Off
Versions: 1 2 3 4 5 6 7 8 9 10 11 12 13 14 15 16 17 18 19 20 21 22 23 24 25 26 27 28 29 30 31 32 33 34 35 36 37 38 39 40 41 42 43 44 45 46 47 48 49 50

000
ASUS41 KCLE 010700
RWRCLE
OHIO REGIONAL WEATHER ROUNDUP
NATIONAL WEATHER SERVICE WILMINGTON, OH
300 AM EDT TUE SEP 01 2015

NOTE: "FAIR" INDICATES FEW OR NO CLOUDS BELOW 12,000 FEET WITH NO
SIGNIFICANT WEATHER AND/OR OBSTRUCTIONS TO VISIBILITY.

OHZ001>008-015>018-024>027-034-035-043-044-010800-
   NORTHWEST OHIO

CITY           SKY/WX    TMP DP  RH WIND       PRES   REMARKS
DEFIANCE       CLEAR     69  67  93 CALM      30.08F FOG
FINDLAY        CLEAR     70  67  90 SW3       30.08F FOG
TOLEDO EXPRESS CLEAR     67  66  97 CALM      30.07F FOG
TOLEDO EXEC    CLEAR     69  65  86 S5        30.08F FOG
LIMA           CLEAR     70  66  87 S3        30.10F
$$

OHZ009>014-019>023-028>033-038-089-010800-
   NORTHEAST OHIO

CITY           SKY/WX    TMP DP  RH WIND       PRES   REMARKS
CLE-HOPKINS    CLEAR     69  66  90 SW5       30.11S
CLE-LAKEFRONT  CLEAR     74  66  76 S7        30.07S
CUY CO. ARPT   NOT AVBL
LORAIN-ELYRIA  CLEAR     68  66  93 S3        30.09F FOG
ASHTABULA      CLEAR     63  62  97 CALM      30.10F FOG
AKRON-CANTON   PTCLDY    72  65  78 CALM      30.11F HAZE
WOOSTER        NOT AVBL
MANSFIELD      CLEAR     69  68  96 SW5       30.12F
YOUNGSTOWN     PTCLDY    66  64  93 CALM      30.11F
$$

OHZ042-051>053-060>062-070>072-077>081-010800-
  SOUTHWEST OHIO

CITY           SKY/WX    TMP DP  RH WIND       PRES   REMARKS
CINC-COVINGTON CLEAR     68  65  90 CALM      30.11F
CINC-LUNKEN    CLEAR     67  67 100 CALM      30.11S FOG
HAMILTON       CLEAR     67  66  97 CALM      30.11F FOG
DAYTON         NOT AVBL
WRIGHT-PAT AFB CLEAR     69  67  93 E2        30.11S
DAYTON GENERAL CLEAR     70  65  84 CALM      30.11F
WILMINGTON     CLEAR     66  64  93 CALM      30.12S FOG
$$

OHZ036-037-039>041-045>050-054>059-063>069-073>076-082>088-010800-
  CENTRAL AND SOUTHEAST OHIO

CITY           SKY/WX    TMP DP  RH WIND       PRES   REMARKS
COLUMBUS       CLEAR     70  68  93 CALM      30.10S
OSU AIRPORT    CLEAR     69  68  96 CALM      30.11S FOG
BOLTON FIELD   NOT AVBL
RICKENBACK AFB NOT AVBL
NEWARK         FOG       65  64  97 CALM      30.10F VSB 3/4
MARION         CLEAR     68  66  93 CALM      30.11S FOG
LANCASTER      CLEAR     65  63  93 CALM      30.11F FOG
ZANESVILLE     NOT AVBL
NEW PHILLY     CLEAR     66  65  96 CALM      30.11F FOG
$$



USA.gov is the U.S. government's official web portal to all federal, state and local government web resources and services.